Regional Weather Roundup
Issued by NWS

Home | Current Version | Previous Version | Text Only | Print | Product List | Glossary Off
Versions: 1 2 3 4 5 6 7 8 9 10 11 12 13 14 15 16 17 18 19 20 21 22 23 24 25 26 27 28 29 30 31 32 33 34 35 36 37 38 39 40 41 42 43 44 45 46 47 48 49 50

000
ASUS43 KLOT 290110
RWRIL

ILLINOIS REGIONAL WEATHER ROUNDUP
NATIONAL WEATHER SERVICE CHICAGO/ROMEOVILLE IL
700 PM CST FRI NOV 28 2014

NOTE: "FAIR" INDICATES FEW OR NO CLOUDS BELOW 12,000 FEET WITH NO
SIGNIFICANT WEATHER AND/OR OBSTRUCTIONS TO VISIBILITY.

* THESE STATIONS ARE NOT UNDER NWS QUALITY CONTROL. THEY ALSO MAY NOT
  REPORT WEATHER SUCH AS PRECIPITATION OR FOG.

ILZ001-002-007-009-015-016-024-290200-
NORTHWEST ILLINOIS

CITY           SKY/WX    TMP DP  RH WIND       PRES   REMARKS
MOLINE         PTCLDY    34  29  82 SE9       29.85F WCI  27
STERLING*      MOCLDY    34  28  80 S7        29.89S WCI  28
SAVANNA*       MOCLDY    32  28  86 E3        29.89R
$$

ILZ003-004-008-010-011-017-018-290200-
NORTH CENTRAL ILLINOIS

CITY           SKY/WX    TMP DP  RH WIND       PRES   REMARKS
ROCKFORD       CLOUDY    33  29  85 S8        29.93S WCI  26
FREEPORT*      CLOUDY    32  28  87 SE8       29.91S WCI  24
ROCHELLE*      CLOUDY    32  30  92 S14       29.90F WCI  22
DE KALB*       CLOUDY    32  29  90 S13       29.92S WCI  22
PERU*          MOCLDY    35  31  87 SE9       29.92F WCI  27
$$

ILZ005-006-012>014-019>023-290200-
NORTHEAST ILLINOIS

CITY           SKY/WX    TMP DP  RH WIND       PRES   REMARKS
CHICAGO-OHARE  CLOUDY    32  26  78 S14       29.94F WCI  22
CHICAGO-MIDWAY CLOUDY    35  26  69 S12       29.97F WCI  27
AURORA         CLOUDY    35  28  75 S15       29.93F WCI  25
LANSING*       CLOUDY    32  26  77 S9        29.99F WCI  24
JOLIET*        CLOUDY    34  30  85 S9G16     29.96F WCI  27
WAUKEGAN       CLOUDY    31  25  78 S10       29.93F WCI  22
DUPAGE AIRPORT CLOUDY    33  28  81 S10       29.93F WCI  25
KANKAKEE*      MOCLDY    35  30  82 S10G17    30.00S WCI  27
WHEELING       CLOUDY    32  26  78 S14       29.95F WCI  22
MORRIS*        CLOUDY    34  32  91 S14       29.94F WCI  25
ROMEOVILLE*    CLOUDY    33  30  86 S12       29.96F WCI  25
NORTHERLY ISL    N/A     33  26  76 SE9         N/A  WCI  25
$$

LMZ740>746-290200-
SOUTHERN LAKE MICHIGAN

STATION/POSITION SKY/WX   TEMP    WIND        PRES    VSBY  WAVE
                          AIR SEA DIR/SP/G                  HT/PER
                          (F)     (DEG/KT/KT) (MB)    (MI)  (FT/S)
SOUTHERN BUOY              35 42  180/ 23/ 27 1015.5F         6/ 6
WAUKEGAN HARBOR            33     180/ 21/ 25   N/A
HARRISON CRIB              32     160/ 23/ 28   N/A
BURNHAM HARBOR             33     160/ 10/ 14   N/A
CALUMET HARBOR             32     150/  9/ 13 1014.3F
MICHIGAN CITY              30     130/ 15/ 17   N/A
$$

ILZ025>027-034>036-040-047-049-050-058-095>099-290200-
WEST-CENTRAL ILLINOIS

CITY           SKY/WX    TMP DP  RH WIND       PRES   REMARKS
QUINCY         CLEAR     37  31  78 SE8       29.84F WCI  31
GALESBURG*     MOCLDY    35  32  89 SE7       29.86F WCI  29
MACOMB*        CLEAR     35  32  90 SE10      29.89F WCI  27
JACKSONVILLE*  CLEAR     39  33  80 SE9       29.90S WCI  33
PITTSFIELD*    CLEAR     40  34  78 SE8       29.89S
$$

ILZ028>032-037-038-041>044-048-051>054-059>061-290200-
CENTRAL ILLINOIS

CITY           SKY/WX    TMP DP  RH WIND       PRES   REMARKS
PONTIAC        MOCLDY    35  32  89 S14       29.95F WCI  26
BLOOMINGTON    PTCLDY    34  32  92 S17       29.94F WCI  23
DECATUR        CLEAR     36  31  82 S14       29.98F WCI  27
PEORIA         MOCLDY    39  30  70 S14G22    29.91F WCI  31
LACON*         MOCLDY    33  30  86 S8        29.91F WCI  27
LINCOLN*       PTCLDY    35  32  88 SE9       29.95F WCI  28
SPRINGFIELD    PTCLDY    40  31  70 S20       29.93F
TAYLORVILLE    PTCLDY    36  32  87 SE14      29.96S WCI  27
$$

ILZ033-039-045-046-055>057-062-063-290200-
EAST-CENTRAL ILLINOIS

CITY           SKY/WX    TMP DP  RH WIND       PRES   REMARKS
CHAMPAIGN      PTCLDY    35  30  82 S16       29.99F WCI  25
DANVILLE*      PTCLDY    34  28  79 S9        29.99F WCI  27
RANTOUL*       MOCLDY    35  32  87 S10       29.99F WCI  28
MATTOON        CLEAR     36  29  75 S15       30.00S WCI  27
PARIS*         PTCLDY    36  30  80 S12       30.04S WCI  27
$$

ILZ079-100>102-290200-
SOUTHWEST ILLINOIS

CITY           SKY/WX    TMP DP  RH WIND       PRES   REMARKS
BELLEVILLE     CLOUDY    42  35  75 S12       29.96F
CAHOKIA*       CLOUDY    42  33  70 S6        29.95F
SPARTA*        CLOUDY    43  33  67 S13       29.99F
$$

ILZ064>066-069>071-074>076-080>082-084>086-088>090-092>094-290200-
SOUTH-CENTRAL ILLINOIS

CITY           SKY/WX    TMP DP  RH WIND       PRES   REMARKS
CARBONDALE     MOCLDY    43  28  55 S14       30.02F
CAIRO*         CLEAR     45  29  54 S9        30.07S
EFFINGHAM*     CLEAR     38  28  69 SE7       30.01F WCI  32
MARION         PTCLDY    45  30  57 S14       30.04S
MT. VERNON     CLEAR     39  28  65 SE6       30.03F WCI  35
CENTRALIA*     PTCLDY    40  30  66 S9        30.00F
SALEM*           N/A     42  31  65 S7        30.01F
METROPOLIS*    CLEAR     44  28  54 S6          N/A
$$

ILZ067-068-072-073-078-083-087-091-290200-
SOUTHEAST ILLINOIS

CITY           SKY/WX    TMP DP  RH WIND       PRES   REMARKS
LAWRENCEVILLE  PTCLDY    37  29  72 S12       30.06F WCI  29
FLORA*         PTCLDY    36  31  82 S9        30.04S WCI  29
FAIRFIELD*     CLEAR     38  30  72 SE7       30.04F WCI  33
HARRISBURG*    CLEAR     39  30  69 S6        30.06S WCI  35
ROBINSON*      PTCLDY    36  28  75 S10       30.07F WCI  28
CARMI*         PTCLDY    36  32  84 SE7       30.06S WCI  31
$$

ABBREVIATIONS USED IN REMARKS
   TC - TEMPERATURE IN CELSIUS
  WCI - WIND CHILL INDEX
   HX - HEAT INDEX
  VSB - VISIBILITY
$$



USA.gov is the U.S. government's official web portal to all federal, state and local government web resources and services.